TimeCST,TemperatureF,Dew PointF,Humidity,Sea Level PressureIn,VisibilityMPH,Wind Direction,Wind SpeedMPH,Gust SpeedMPH,PrecipitationIn,Events,Conditions,WindDirDegrees,DateUTC
12:13 AM,21.2,21.2,100,29.91,10.0,Calm,Calm,-,N/A,,Clear,0,2013-12-02 06:13:00
12:33 AM,23.0,21.2,93,29.90,10.0,Calm,Calm,-,N/A,,Clear,0,2013-12-02 06:33:00
12:53 AM,23.0,21.2,93,29.90,10.0,Calm,Calm,-,N/A,,Clear,0,2013-12-02 06:53:00
1:13 AM,23.0,21.2,93,29.90,10.0,Calm,Calm,-,N/A,,Scattered Clouds,0,2013-12-02 07:13:00
1:33 AM,21.2,21.2,100,29.89,10.0,Calm,Calm,-,N/A,,Scattered Clouds,0,2013-12-02 07:33:00
1:53 AM,21.2,21.2,100,29.90,10.0,Calm,Calm,-,N/A,,Scattered Clouds,0,2013-12-02 07:53:00
2:13 AM,21.2,19.4,93,29.89,10.0,Calm,Calm,-,N/A,,Clear,0,2013-12-02 08:13:00
2:33 AM,21.2,19.4,93,29.89,10.0,Calm,Calm,-,N/A,,Clear,0,2013-12-02 08:33:00
2:53 AM,19.4,19.4,100,29.87,10.0,Calm,Calm,-,N/A,,Clear,0,2013-12-02 08:53:00
3:13 AM,19.4,19.4,100,29.87,10.0,Calm,Calm,-,N/A,,Clear,0,2013-12-02 09:13:00
3:33 AM,17.6,17.6,100,29.87,10.0,Calm,Calm,-,N/A,,Clear,0,2013-12-02 09:33:00
3:53 AM,17.6,17.6,100,29.87,10.0,Calm,Calm,-,N/A,,Clear,0,2013-12-02 09:53:00
4:13 AM,17.6,17.6,100,29.86,10.0,Calm,Calm,-,N/A,,Clear,0,2013-12-02 10:13:00
4:33 AM,17.6,17.6,100,29.85,10.0,Calm,Calm,-,N/A,,Clear,0,2013-12-02 10:33:00
4:53 AM,19.4,19.4,100,29.85,10.0,Calm,Calm,-,N/A,,Clear,0,2013-12-02 10:53:00
5:13 AM,17.6,17.6,100,29.84,10.0,Calm,Calm,-,N/A,,Clear,0,2013-12-02 11:13:00
5:33 AM,19.4,19.4,100,29.83,10.0,Calm,Calm,-,N/A,,Clear,0,2013-12-02 11:33:00
5:53 AM,19.4,19.4,100,29.83,10.0,Calm,Calm,-,N/A,,Clear,0,2013-12-02 11:53:00
6:13 AM,19.4,19.4,100,29.84,10.0,Calm,Calm,-,N/A,,Clear,0,2013-12-02 12:13:00
6:33 AM,19.4,19.4,100,29.83,10.0,Calm,Calm,-,N/A,,Scattered Clouds,0,2013-12-02 12:33:00
6:53 AM,19.4,19.4,100,29.83,10.0,Calm,Calm,-,N/A,,Scattered Clouds,0,2013-12-02 12:53:00
7:13 AM,19.4,19.4,100,29.82,10.0,Calm,Calm,-,N/A,,Scattered Clouds,0,2013-12-02 13:13:00
7:33 AM,21.2,19.4,93,29.82,10.0,Calm,Calm,-,N/A,,Scattered Clouds,0,2013-12-02 13:33:00
7:53 AM,21.2,19.4,93,29.82,10.0,Calm,Calm,-,N/A,,Scattered Clouds,0,2013-12-02 13:53:00
8:13 AM,21.2,21.2,100,29.82,10.0,Calm,Calm,-,N/A,,Scattered Clouds,0,2013-12-02 14:13:00
8:33 AM,21.2,21.2,100,29.82,10.0,Calm,Calm,-,N/A,,Scattered Clouds,0,2013-12-02 14:33:00
8:53 AM,23.0,21.2,93,29.81,10.0,Calm,Calm,-,N/A,,Clear,0,2013-12-02 14:53:00
9:13 AM,23.0,21.2,93,29.81,10.0,Calm,Calm,-,N/A,,Clear,0,2013-12-02 15:13:00
9:33 AM,24.8,21.2,86,29.81,10.0,Calm,Calm,-,N/A,Snow,Light Snow,0,2013-12-02 15:33:00
9:53 AM,24.8,21.2,86,29.81,7.0,Calm,Calm,-,N/A,,Clear,0,2013-12-02 15:53:00
10:13 AM,24.8,24.8,100,29.80,2.0,Calm,Calm,-,N/A,Snow,Light Snow,0,2013-12-02 16:13:00
10:33 AM,26.6,24.8,93,29.80,1.8,NE,4.6,-,N/A,Snow,Light Snow,40,2013-12-02 16:33:00
10:53 AM,26.6,24.8,93,29.80,1.5,NE,5.8,-,N/A,Snow,Light Snow,50,2013-12-02 16:53:00
11:13 AM,26.6,26.6,100,29.79,2.0,NE,5.8,-,N/A,Snow,Light Snow,50,2013-12-02 17:13:00
11:33 AM,26.6,26.6,100,29.78,3.0,NE,5.8,-,N/A,Snow,Light Snow,50,2013-12-02 17:33:00
11:53 AM,26.6,26.6,100,29.78,1.8,ENE,5.8,-,N/A,,Mostly Cloudy,60,2013-12-02 17:53:00
12:13 PM,28.4,28.4,100,29.77,2.5,East,5.8,-,N/A,Snow,Light Snow,80,2013-12-02 18:13:00
12:33 PM,28.4,28.4,100,29.76,1.8,East,8.1,-,N/A,Snow,Light Snow,80,2013-12-02 18:33:00
12:53 PM,28.4,28.4,100,29.76,1.5,ENE,6.9,-,N/A,Snow,Light Snow,70,2013-12-02 18:53:00
1:13 PM,28.4,28.4,100,29.75,2.0,ENE,9.2,-,N/A,Snow,Light Snow,60,2013-12-02 19:13:00
1:33 PM,28.4,28.4,100,29.74,1.8,ENE,9.2,-,N/A,Snow,Light Snow,70,2013-12-02 19:33:00
1:53 PM,28.4,28.4,100,29.74,1.8,ENE,6.9,-,N/A,Snow,Light Snow,60,2013-12-02 19:53:00
2:13 PM,28.4,28.4,100,29.74,1.0,NE,6.9,-,0.01,Snow,Light Snow,50,2013-12-02 20:13:00
2:33 PM,30.2,30.2,100,29.74,1.0,ENE,8.1,-,0.02,Snow,Light Snow,70,2013-12-02 20:33:00
2:53 PM,30.2,30.2,100,29.74,1.2,East,8.1,-,N/A,Snow,Light Snow,80,2013-12-02 20:53:00
3:13 PM,30.2,30.2,100,29.74,1.0,ENE,6.9,-,0.01,Snow,Light Snow,70,2013-12-02 21:13:00
3:33 PM,30.2,30.2,100,29.74,1.8,ENE,5.8,-,0.01,Snow,Light Snow,70,2013-12-02 21:33:00
3:53 PM,30.2,30.2,100,29.74,2.0,ENE,8.1,-,N/A,Snow,Light Snow,70,2013-12-02 21:53:00
4:13 PM,30.2,30.2,100,29.74,2.5,ENE,8.1,-,N/A,Snow,Light Snow,70,2013-12-02 22:13:00
4:33 PM,30.2,30.2,100,29.74,2.5,ENE,9.2,-,0.01,Snow,Light Snow,70,2013-12-02 22:33:00
4:54 PM,30.2,30.2,100,29.74,1.2,ENE,8.1,-,N/A,Snow,Light Snow,70,2013-12-02 22:54:00
5:13 PM,30.2,30.2,100,29.74,1.5,ENE,9.2,-,N/A,Snow,Light Snow,70,2013-12-02 23:13:00
5:33 PM,30.2,30.2,100,29.74,1.8,ENE,8.1,-,0.01,Snow,Light Snow,70,2013-12-02 23:33:00
5:53 PM,30.2,30.2,100,29.74,1.8,East,8.1,-,N/A,Snow,Light Snow,80,2013-12-02 23:53:00
6:13 PM,30.2,30.2,100,29.74,2.0,ENE,8.1,-,N/A,Snow,Light Snow,70,2013-12-03 00:13:00
6:33 PM,30.2,30.2,100,29.74,1.8,East,8.1,17.3,0.01,Snow,Light Snow,80,2013-12-03 00:33:00
6:53 PM,30.2,30.2,100,29.74,2.0,East,10.4,16.1,N/A,Snow,Light Snow,80,2013-12-03 00:53:00
7:13 PM,30.2,30.2,100,29.74,1.8,East,12.7,18.4,N/A,Snow,Light Snow,80,2013-12-03 01:13:00
7:33 PM,30.2,30.2,100,29.74,1.8,East,12.7,18.4,N/A,Snow,Light Snow,80,2013-12-03 01:33:00
7:53 PM,30.2,30.2,100,29.74,2.5,East,10.4,-,N/A,Snow,Light Snow,80,2013-12-03 01:53:00
8:13 PM,30.2,30.2,100,29.74,2.5,East,15.0,18.4,N/A,Snow,Light Snow,90,2013-12-03 02:13:00
8:33 PM,30.2,30.2,100,29.74,1.2,East,11.5,-,0.01,Snow,Light Snow,80,2013-12-03 02:33:00
8:53 PM,30.2,30.2,100,29.74,1.0,East,13.8,18.4,0.01,Snow,Light Snow,90,2013-12-03 02:53:00
9:13 PM,30.2,30.2,100,29.74,1.2,East,10.4,23.0,0.02,Snow,Light Snow,90,2013-12-03 03:13:00
9:33 PM,30.2,30.2,100,29.74,2.0,ENE,12.7,19.6,0.02,Snow,Light Snow,70,2013-12-03 03:33:00
9:53 PM,30.2,30.2,100,29.74,1.8,ENE,12.7,18.4,0.01,Snow,Light Snow,70,2013-12-03 03:53:00
10:13 PM,30.2,30.2,100,29.74,1.2,East,11.5,19.6,0.01,Snow,Light Snow,90,2013-12-03 04:13:00
10:33 PM,30.2,30.2,100,29.74,2.5,East,12.7,18.4,0.02,Snow,Light Snow,80,2013-12-03 04:33:00
10:53 PM,30.2,30.2,100,29.75,1.2,East,13.8,21.9,0.01,Snow,Light Snow,80,2013-12-03 04:53:00
11:13 PM,30.2,30.2,100,29.75,1.2,East,10.4,20.7,0.02,Snow,Light Snow,80,2013-12-03 05:13:00
11:33 PM,30.2,30.2,100,29.76,1.0,East,13.8,18.4,0.03,Snow,Light Snow,80,2013-12-03 05:33:00
11:53 PM,30.2,30.2,100,29.75,1.0,East,11.5,19.6,N/A,Snow,Snow,80,2013-12-03 05:53:00